Location: Newark
(44.6303°N, 123.0961°W)
Time: 14:38:49
(UTC+00:00)

Envisat - Pass Details

Date: 31 January 2020
Orbit: 764 x 766 km, 98.1° (Epoch: 28 February)

Event Time Altitude Azimuth Distance (km) Brightness Sun altitude
Rises 14:09:45 0° 22° (NNE) 3,242 6.4 -14.9°
Reaches altitude 10° 14:12:19 10° 32° (NNE) 2,311 5.8 -14.5°
Maximum altitude 14:16:51 32° 95° (E) 1,299 5.0 -13.7°
Drops below altitude 10° 14:21:21 10° 158° (SSE) 2,294 5.9 -12.9°
Sets 14:23:52 0° 169° (SSE) 3,215 6.6 -12.5°
